Wind_Speed
21 17 14 12 12 11 9 6 4 1 2 3 5 6 5 4 7 3 11 5 3 3 1 0 4 3 4 3 1 2 6 11 13 9 3 3 6 2 6 12 7 8 10 8 8
20 16 14 13 13 12 10 8 6 4 3 4 4 4 4 6 4 15 5 6 7 4 1 1 4 4 3 2 2 7 8 8 6 4 7 6 8 11 10 12 12 10 9 8 10
19 14 12 11 11 10 9 7 5 5 5 4 3 2 0 4 5 8 4 4 5 5 4 2 3 2 2 2 1 1 8 4 5 3 6 11 11 8 12 16 12 12 12 12 14
20 13 10 9 8 8 7 6 8 6 5 3 2 2 4 5 2 5 4 6 8 5 1 3 4 3 3 4 1 8 2 5 2 8 12 14 14 14 15 17 15 15 16 14 15
23 16 10 8 8 9 8 8 9 6 2 2 3 3 1 8 10 2 3 4 3 2 6 2 4 0 2 0 3 8 2 5 8 12 14 15 17 19 18 15 17 15 14 15 14
24 19 13 10 11 14 9 6 1 4 1 2 4 6 6 14 2 2 1 2 5 5 6 8 6 5 2 2 6 2 8 11 12 11 10 13 15 12 11 9 9 10 13 13 13
26 21 14 12 15 16 10 9 4 2 3 4 9 5 12 9 2 0 2 2 4 4 2 4 4 4 4 3 1 6 12 10 8 5 10 7 17 21 15 14 15 14 15 15 16
26 18 17 16 17 16 8 9 10 7 8 9 7 0 9 4 2 3 1 2 1 1 2 1 3 3 4 1 10 10 7 7 10 9 7 5 17 14 6 10 18 18 18 18 19
27 17 16 17 19 14 7 8 10 7 8 4 1 4 8 3 7 7 4 2 2 2 3 4 5 4 7 7 9 8 7 11 8 10 8 12 19 15 12 17 20 22 21 20 21
32 18 12 14 19 17 4 3 6 7 2 1 2 5 10 5 5 5 3 2 3 5 8 6 4 8 9 6 8 11 14 12 14 8 17 20 24 19 16 17 21 21 21 22 23
32 17 13 8 12 16 6 4 5 4 16 12 7 6 6 9 3 10 11 6 4 7 8 5 9 7 9 7 9 12 15 16 16 13 15 21 26 23 20 19 21 21 21 22 23
32 16 14 11 5 10 7 3 5 4 7 6 8 7 5 11 3 11 15 5 7 10 7 9 9 4 7 10 11 14 16 17 15 10 16 21 31 26 20 13 15 17 19 19 17
32 19 16 10 0 6 9 6 4 1 2 5 5 7 9 7 4 9 12 9 8 9 8 9 11 9 9 11 11 14 16 17 20 18 17 15 21 3 14 10 10 8 9 12 13
30 19 16 5 3 4 3 8 4 4 5 3 2 4 7 2 3 4 11 5 4 7 8 7 2 6 11 14 13 17 10 12 17 14 12 12 13 18 8 8 7 9 10 11 11
28 15 14 7 3 4 7 5 6 4 4 3 3 2 2 8 8 4 10 4 6 8 5 4 9 12 14 10 9 11 10 14 17 18 20 18 10 6 7 6 6 8 7 3 2
30 10 10 4 2 5 5 3 4 5 1 2 1 5 6 8 2 7 5 2 3 6 5 10 7 4 5 7 7 12 15 19 21 14 11 14 12 10 4 7 10 14 10 12 13
30 1 7 7 7 9 1 5 5 3 2 3 4 6 5 8 2 9 8 6 6 6 6 11 4 1 6 10 10 6 13 7 5 8 9 6 10 16 17 9 12 11 12 10 9
21 7 6 9 8 2 5 5 4 3 3 2 4 5 4 10 5 11 8 3 4 6 11 7 2 2 2 11 9 15 8 6 7 9 15 21 9 2 3 10 10 8 9 7 5
10 2 3 17 6 2 5 2 4 2 3 6 5 3 1 3 6 7 7 3 3 4 7 6 5 14 11 5 5 4 7 8 12 18 16 11 15 16 16 7 10 7 6 9 8
6 1 11 19 4 5 3 3 2 1 3 2 3 2 5 8 6 10 4 2 1 2 3 5 9 7 4 11 14 13 7 4 4 5 13 12 19 11 11 14 14 14 14 14 15
3 3 13 17 2 0 1 3 2 3 2 2 2 5 4 7 7 7 3 2 2 4 5 10 5 6 17 6 10 5 8 7 6 8 7 12 7 18 22 16 15 14 19 22 23
5 1 16 12 1 2 3 2 1 1 1 2 4 4 5 4 7 5 5 2 1 7 11 9 6 14 22 21 14 16 17 14 6 10 7 10 20 8 1 12 17 19 19 22 23
4 3 10 10 3 4 2 2 2 2 2 2 3 3 2 5 3 8 8 2 5 11 4 6 4 8 9 5 2 6 6 12 15 10 17 13 14 13 25 26 24 26 24 23 24
4 2 3 6 4 4 4 1 2 1 5 3 6 5 5 7 9 9 10 6 1 9 13 9 9 15 11 16 18 22 23 21 17 6 18 19 32 29 26 27 24 24 24 26 27
5 4 3 4 3 6 3 2 4 3 3 4 4 4 2 3 13 12 5 6 13 11 7 6 9 15 20 23 24 25 27 27 22 22 17 25 27 29 26 24 25 25 26 26 25
4 4 4 3 4 6 2 1 6 1 4 5 9 5 8 11 11 15 19 15 11 9 7 3 6 11 19 21 23 25 26 23 24 21 23 23 28 24 22 22 25 27 26 24 24
7 1 4 1 3 4 3 3 5 6 8 8 11 13 16 16 13 15 18 21 19 17 14 5 3 3 11 14 20 18 7 5 11 12 14 16 26 25 20 23 25 27 26 22 22
Wind_Direction
9 10 10 10 19 27 33 38 44 41 343 341 348 345 355 34 82 62 53 44 45 34 49 291 157 147 180 153 164 252 246 247 247 250 225 139 296 254 313 280 285 293 290 323 323
11 20 31 30 28 31 36 39 38 26 354 340 343 350 5 115 114 65 47 58 53 38 337 324 111 180 153 150 154 242 246 272 23 341 284 299 288 307 295 281 276 272 271 292 311
13 29 33 39 38 33 26 22 25 15 357 343 357 360 35 152 177 54 32 53 43 37 46 70 130 228 161 196 134 163 271 89 196 308 296 292 281 282 282 277 276 295 293 303 306
16 40 44 45 33 15 355 340 331 339 355 9 28 15 134 226 90 74 72 64 50 27 334 116 204 191 201 193 168 251 236 257 274 287 287 280 293 271 265 274 287 282 285 294 288
16 25 30 26 23 7 334 292 288 278 331 46 53 111 141 114 90 79 66 17 8 13 40 43 62 247 206 178 253 253 178 245 267 276 278 288 273 275 276 272 270 280 281 273 275
21 15 13 10 19 13 20 4 67 187 84 71 122 131 214 95 73 143 221 339 31 18 35 27 29 6 81 310 283 68 279 278 273 279 271 270 279 274 268 265 253 263 269 266 274
19 25 27 23 18 16 43 75 59 99 73 99 126 96 81 83 57 156 293 21 11 12 40 37 3 301 349 253 348 293 280 270 245 209 287 318 269 252 258 264 269 273 264 250 266
18 24 22 17 12 13 68 70 66 77 85 99 117 23 82 80 54 26 295 197 210 224 243 279 257 289 284 344 234 261 246 254 146 256 272 240 282 278 301 259 274 278 278 268 264
16 15 14 13 14 31 73 70 59 81 70 101 39 274 86 65 38 21 15 318 291 191 243 240 244 302 215 264 265 199 301 304 302 199 274 267 291 276 263 260 269 274 271 267 265
11 16 12 13 8 19 66 41 28 57 342 294 263 196 55 25 32 1 40 288 276 266 216 218 265 263 242 296 306 313 303 302 297 304 297 292 284 287 290 272 265 264 263 262 263
7 9 12 356 10 11 8 292 201 147 51 47 45 65 53 2 338 17 357 304 280 266 278 337 293 291 335 306 299 292 288 293 297 314 298 298 292 294 291 277 268 262 255 255 259
7 8 1 352 1 14 22 64 40 354 100 56 59 53 23 348 299 22 357 322 307 294 309 258 267 343 318 284 280 282 287 287 304 305 318 302 294 297 279 270 264 269 268 262 261
6 8 360 359 239 26 50 59 1 198 238 72 46 22 1 332 39 3 355 324 283 280 281 284 302 337 284 289 285 279 288 297 302 311 282 295 291 166 338 284 290 284 288 272 259
4 3 4 23 138 356 65 330 271 208 228 55 28 58 353 78 191 14 1 323 263 312 315 277 46 296 291 289 293 290 329 309 297 304 301 333 294 297 316 311 276 279 285 267 247
2 4 8 55 1 15 326 343 156 204 237 64 59 345 56 30 322 55 2 318 311 317 284 40 312 314 294 310 312 291 325 296 290 282 289 276 253 287 275 303 347 329 345 331 233
356 359 21 23 27 359 332 158 200 227 134 122 349 345 344 18 31 343 346 329 304 302 261 281 315 288 334 303 281 312 289 287 266 266 259 258 230 280 287 341 310 313 318 325 335
351 345 53 34 335 317 256 214 225 282 145 52 342 339 338 349 351 359 350 39 27 326 352 319 199 228 305 316 305 267 311 303 270 205 253 142 269 256 288 306 316 316 317 324 329
353 150 20 16 332 283 201 221 255 49 28 47 321 324 342 3 3 347 348 7 83 353 310 343 191 23 14 307 292 300 290 281 293 298 306 314 262 62 273 302 292 336 331 344 337
15 94 36 346 341 227 237 259 29 57 7 333 306 298 30 2 336 328 356 327 5 358 356 322 260 319 309 320 255 43 245 1 289 273 265 248 248 243 252 245 271 286 316 293 310
348 257 29 346 335 245 251 75 112 81 336 299 321 334 324 343 328 341 320 103 324 299 348 331 300 299 313 288 254 242 321 271 229 279 299 293 296 295 356 324 309 306 301 308 318
331 223 6 348 305 248 65 75 136 90 330 279 307 290 298 319 322 321 287 274 245 335 298 295 271 272 296 255 294 238 237 231 299 277 284 300 288 342 316 325 338 329 336 321 305
320 222 353 350 284 23 61 14 357 255 232 277 276 279 284 314 297 288 261 267 1 316 304 307 288 287 289 288 275 268 264 262 251 266 252 282 283 294 232 334 311 308 300 310 318
0 346 359 337 32 49 72 176 259 260 297 270 258 248 282 283 283 270 276 312 267 292 305 14 256 300 301 152 153 241 281 273 271 275 256 269 269 304 318 320 326 322 321 314 307
317 343 58 57 54 356 357 178 268 227 276 274 291 278 269 269 243 267 270 296 265 293 295 301 235 242 260 287 307 293 288 283 264 245 279 269 289 296 309 320 324 322 319 317 312
1 52 11 350 53 343 303 306 274 284 264 260 214 245 300 273 312 265 271 279 281 302 247 238 256 253 257 268 277 276 276 275 266 267 261 284 285 299 320 323 324 321 317 311 309
1 352 338 303 304 303 100 189 288 260 273 264 258 246 288 270 233 279 291 293 282 264 247 267 265 288 277 281 272 274 277 275 274 277 283 294 291 303 320 318 319 316 311 311 301
17 13 296 64 306 287 5 319 303 308 277 264 286 288 289 297 305 289 285 279 267 262 266 267 253 258 282 297 308 285 294 277 268 283 282 283 292 308 312 315 310 308 305 298 295
Height
799 797 794 791 789 787 786 785 785 785 784 784 783 781 781 779 778 778 778 782 781 780 779 779 777 774 772 770 770 767 771 765 758 765 756 766 769 758 760 761 755 753 752 752 753
800 797 794 792 789 788 787 786 785 784 784 783 783 782 779 779 778 778 784 782 781 781 779 776 772 773 770 770 770 768 768 756 763 767 768 768 770 765 767 759 757 752 749 750 752
800 798 796 794 791 790 788 786 785 785 783 782 782 781 780 779 775 783 785 784 783 782 781 778 775 771 772 769 773 772 770 768 771 772 773 772 770 762 769 765 753 757 752 751 752
802 800 797 796 794 791 789 787 784 784 783 782 782 781 780 781 783 786 786 785 782 782 780 776 774 773 772 774 775 777 775 775 770 773 773 771 764 768 764 760 754 753 752 752 751
804 801 798 796 794 792 789 786 784 783 783 782 781 780 780 775 782 786 785 785 785 783 780 777 774 773 774 776 777 777 776 778 774 773 769 766 766 763 759 754 754 751 751 750 748
804 800 797 795 794 791 787 784 782 783 783 782 781 780 779 783 788 788 787 787 785 782 779 776 775 774 775 776 778 775 777 775 771 769 768 770 762 761 754 750 753 751 749 746 745
803 800 797 795 793 790 788 786 784 783 783 783 782 780 777 786 788 788 788 787 786 785 781 782 781 778 777 778 776 778 783 770 768 769 772 768 771 760 749 747 748 747 744 743 741
803 800 798 795 793 790 788 787 786 785 785 784 783 783 783 790 789 788 787 786 787 786 785 785 783 778 778 778 778 781 779 772 764 766 766 775 769 747 747 748 746 743 740 738 736
805 801 798 795 793 790 789 789 788 788 787 786 786 780 786 789 787 787 787 784 784 784 784 784 781 777 777 776 767 774 770 768 766 765 765 766 759 746 741 744 745 741 735 730 727
807 803 800 797 793 791 790 789 789 787 788 787 787 783 789 791 790 788 787 786 782 779 778 778 774 775 765 767 773 776 775 768 768 757 757 756 747 737 733 733 733 730 727 723 719
808 804 801 799 796 792 790 789 788 787 788 789 790 787 789 790 789 787 785 783 779 776 780 774 781 772 772 774 776 778 776 772 759 753 759 752 742 734 726 723 721 717 716 714 712
808 804 801 799 798 795 793 791 796 796 794 792 790 789 792 790 787 787 786 783 781 782 776 777 772 770 774 774 776 774 772 764 755 749 758 748 734 723 714 714 712 710 707 705 706
808 804 801 797 797 797 796 798 798 798 787 795 794 793 793 792 791 791 789 784 782 782 777 782 772 774 778 774 774 768 767 762 762 757 750 743 727 706 706 705 704 702 704 704 704
808 803 800 798 799 797 796 798 797 798 787 801 794 795 793 789 793 792 790 789 780 783 782 776 775 780 777 775 771 773 759 767 765 763 756 743 745 720 712 710 705 701 699 698 701
807 803 799 797 799 796 800 797 797 798 795 800 795 796 794 795 797 790 791 785 787 785 787 772 778 779 779 774 776 772 770 768 764 762 756 745 748 708 700 709 703 701 701 700 700
807 802 800 799 798 799 797 797 798 795 800 800 796 798 794 791 795 791 791 790 788 788 783 779 775 781 777 776 775 773 768 757 749 747 752 724 735 711 702 709 707 701 700 700 701
804 801 800 799 800 797 796 795 793 792 800 802 800 796 797 797 795 795 794 794 793 792 781 776 774 779 780 778 766 770 769 760 745 742 734 726 739 718 703 702 704 706 704 705 709
800 798 800 801 798 795 795 789 797 804 800 799 800 797 802 798 795 795 793 792 796 795 789 792 777 781 781 783 783 776 778 772 778 743 731 726 731 701 702 701 702 705 709 709 711
800 801 800 799 795 795 789 790 798 802 804 804 797 800 799 798 803 798 792 798 797 797 804 795 787 773 776 777 778 768 774 762 770 753 744 721 708 695 686 698 698 700 706 706 707
803 800 799 797 793 793 785 806 802 804 805 804 806 804 804 800 803 799 795 795 798 798 798 795 802 777 779 777 769 776 764 778 781 780 752 714 709 695 697 699 697 700 702 704 705
804 794 800 796 794 786 796 802 803 804 805 807 805 806 805 807 805 802 798 793 797 796 798 796 804 783 776 771 767 771 770 772 772 767 761 740 709 692 704 702 704 708 715 715 712
804 793 801 796 791 796 798 809 818 806 804 804 803 804 806 809 808 803 800 798 798 798 801 793 795 792 774 760 758 761 760 763 781 765 766 759 726 697 701 700 706 708 704 703 707
808 805 803 796 797 801 808 810 809 808 807 807 805 805 805 808 821 802 799 795 799 800 796 797 800 798 769 757 762 762 761 765 764 775 767 767 724 693 696 702 704 706 707 709 707
812 803 804 806 814 813 813 808 808 810 808 809 807 807 807 805 802 807 798 794 799 800 801 806 806 799 785 764 761 765 759 759 764 770 744 736 712 709 706 707 708 709 709 708 706
820 825 831 813 810 819 818 815 810 812 809 808 806 807 813 833 809 796 793 794 790 793 795 796 796 786 783 777 772 768 760 749 748 744 753 732 722 707 711 712 713 714 712 710 705
828 832 828 822 824 820 821 809 812 813 817 806 809 802 809 814 813 808 795 792 795 789 790 794 788 783 777 763 755 745 730 730 726 723 720 719 716 714 713 718 720 720 711 711 706
843 842 836 828 821 818 810 813 814 817 809 809 808 808 806 801 799 795 794 790 790 790 791 800 799 794 769 746 746 746 738 726 726 729 735 740 716 718 720 726 728 719 714 710 703